This demonstration page uses our WeatherBlox Daily Observations layout. Learn more.

Left ArrowRight Arrow

38.88101, -77.10428

Hourly Observations for August 14, 2020

Temp ( °F °C ) Dew Point ( °F °C ) Humidity (%) Winds ( mph kmh ) Pressure ( in mb ) Visibility ( mi km ) Precip ( " mm )
12:52 am 00:52 Mostly Clear 77 25 73 22.8 88 88 NE 8 13 30.03 1017 10 16.0934 0 0
1:03 am 01:03 Mostly Cloudy 77 25 74 23.3 90 90 NE 9 15 30.03 1017 10 16.0934 0 0
1:10 am 01:10 Mostly Cloudy 76 24.4 73 22.8 91 91 NE 10 17 30.02 1017 10 16.0934 0 0
1:33 am 01:33 Mostly Cloudy 76 24.4 73 22.8 91 91 NNE 9 15 30.02 1017 10 16.0934 0 0
1:52 am 01:52 Cloudy 76 24.4 72 22.2 88 88 NE 9 15 30.01 1016 10 16.0934 0 0
2:52 am 02:52 Partly Cloudy 76 24.4 73 22.8 91 91 NNE 9 15 29.99 1016 10 16.0934 0 0
3:14 am 03:14 Mostly Cloudy 76 24.4 73 22.8 91 91 NNE 10 17 29.98 1015 10 16.0934 0 0
3:52 am 03:52 Cloudy with Light Rain 76 24.4 73 22.8 91 91 NNE 12 19 29.98 1015 6 9.65604 0.06 1.524
4:04 am 04:04 Cloudy 76 24.4 74 23.3 94 94 NNE 8 13 29.98 1015 10 16.0934 0.001 0.001
4:14 am 04:14 Cloudy 76 24.4 74 23.3 94 94 NNE 10 17 29.98 1015 10 16.0934 0.001 0.001
4:24 am 04:24 Cloudy 76 24.4 74 23.3 94 94 NNE 12 19 29.98 1015 10 16.0934 0.001 0.001
4:42 am 04:42 Cloudy 76 24.4 74 23.3 94 94 NNE 8 13 29.98 1015 10 16.0934 0.001 0.001
4:52 am 04:52 Cloudy 76 24.4 73 22.8 91 91 N 10 17 29.98 1015 10 16.0934 0.001 0.001
5:17 am 05:17 Cloudy 76 24.4 73 22.8 91 91 NNE 10 17 29.98 1015 10 16.0934 0 0
5:27 am 05:27 Cloudy 76 24.4 73 22.8 91 91 NNE 10 17 29.98 1015 10 16.0934 0 0
5:52 am 05:52 Cloudy 76 24.4 73 22.8 91 91 NE 9 15 29.98 1015 10 16.0934 0 0
6:52 am 06:52 Cloudy 76 24.4 72 22.2 88 88 NE 10 17 29.99 1016 9 14.48406 0 0
7:52 am 07:52 Cloudy 76 24.4 72 22.2 88 88 NNE 12 19 30 1016 8 12.87472 0 0
8:52 am 08:52 Cloudy 77 25 72 22.2 85 85 NNE 13 20 30 1016 8 12.87472 0 0
9:42 am 09:42 Mostly Cloudy 78 25.6 72 22.2 82 82 NNE 13 20 30 1016 9 14.48406 0 0
9:52 am 09:52 Mostly Cloudy 79 26.1 72 22.2 79 79 NE 14 22 30 1016 10 16.0934 0 0
10:05 am 10:05 Mostly Cloudy 79 26.1 72 22.2 79 79 NNE 10 17 30 1016 10 16.0934 0 0
10:52 am 10:52 Cloudy 80 26.7 72 22.2 76 76 NNE 9 15 30 1016 10 16.0934 0 0
11:52 am 11:52 Mostly Cloudy 82 27.8 72 22.2 72 72 NNE 8 13 29.98 1015 10 16.0934 0 0
11:59 am 11:59 Cloudy 82 27.8 72 22.2 72 72 NNE 12 19 29.99 1015 10 16.0934 0 0
12:52 pm 12:52 Mostly Cloudy 84 28.9 72 22.2 67 67 NNE 7 11 29.97 1015 10 16.0934 0 0
1:52 pm 13:52 Mostly Cloudy 86 30 71 21.7 61 61 ENE 7 11 29.96 1015 10 16.0934 0 0
2:52 pm 14:52 Mostly Cloudy 87 30.6 71 21.7 59 59 NNE 12 19 29.94 1014 10 16.0934 0 0
3:52 pm 15:52 Mostly Cloudy 87 30.6 71 21.7 59 59 NE 10 17 29.93 1014 10 16.0934 0 0
4:52 pm 16:52 Mostly Cloudy 84 28.9 71 21.7 65 65 NNE 14 22 29.93 1014 10 16.0934 0 0
5:52 pm 17:52 Cloudy 82 27.8 72 22.2 72 72 E 13 20 29.94 1014 10 16.0934 0 0
6:52 pm 18:52 Mostly Cloudy 78 25.6 72 22.2 82 82 ESE 14 22 29.95 1014 10 16.0934 0 0
7:52 pm 19:52 Cloudy 78 25.6 71 21.7 79 79 E 9 15 29.97 1015 10 16.0934 0 0
8:52 pm 20:52 Cloudy 78 25.6 70 21.1 76 76 ENE 5 7 29.99 1016 10 16.0934 0 0
9:52 pm 21:52 Cloudy 78 25.6 70 21.1 76 76 NNE 6 9 29.99 1016 10 16.0934 0 0
10:52 pm 22:52 Cloudy 78 25.6 70 21.1 76 76 NNE 5 7 29.98 1015 10 16.0934 0 0
11:52 pm 23:52 Cloudy 78 25.6 70 21.1 76 76 NNE 3 6 29.98 1015 10 16.0934 0 0

Powered by AerisWeather